Date String (YYYY-MM-DD hh:mm:ss) UTC,Instrument flags,Ambient pressure (hPa),Sample flow (lpm),Bypass flow (lpm),Sample temperature (°C),Ambient temperature (°C),ASC tube jacket temperature (°C),LED temperature (°C),Box temperature (°C),Sample RH (%),Span deviation,Mass concentration (μg/m³),Mass concentration (μg/m³),Mass concentration (μg/m³)
DateTimeUTC,F1_M11,P_M11,Q1_M11,Q2_M11,T1_M11,T2_M11,T3_M11,T4_M11,T5_M11,U1_M11,ZSPAN_M11,X0_M11,X2_M11,X1_M11
2022-05-09 20:00:00,,0813.2,5.01,0.00,28.9,28.3,00.0,37.8,30.7,17.3,0000.0,0027.68,0007.54,0003.49
2022-05-09 20:01:00,,0813.3,5.00,0.00,28.9,28.3,00.0,37.8,30.7,17.6,0000.0,0027.28,0007.54,0003.49
2022-05-09 20:02:00,,0813.3,5.00,0.00,28.9,28.3,00.0,37.8,30.7,17.7,0000.0,0026.67,0007.50,0003.50
2022-05-09 20:03:00,,0813.3,5.00,0.00,28.9,28.3,00.0,37.8,30.7,17.7,0000.0,0026.70,0007.45,0003.51
2022-05-09 20:04:00,,0813.4,5.00,0.00,28.9,28.3,00.0,37.8,30.7,17.7,0000.0,0026.70,0007.46,0003.52
2022-05-09 20:05:00,,0813.4,5.00,0.00,28.9,28.3,00.0,37.8,30.7,18.1,0000.0,0026.84,0007.55,0003.53
2022-05-09 20:06:00,,0813.3,5.00,0.00,28.9,28.3,00.0,37.8,30.7,18.2,0000.0,0026.28,0007.53,0003.51
2022-05-09 20:07:00,,0813.3,5.01,0.00,28.9,28.3,00.0,37.8,30.8,18.1,0000.0,0025.96,0007.51,0003.50
2022-05-09 20:08:00,,0813.3,5.00,0.00,28.9,28.4,00.0,37.8,30.8,18.0,0000.0,0026.40,0007.58,0003.49
2022-05-09 20:09:00,,0813.4,5.00,0.00,28.9,28.4,00.0,37.8,30.8,18.4,0000.0,0025.85,0007.59,0003.49
2022-05-09 20:10:00,,0813.4,4.99,0.00,29.0,28.4,00.0,37.8,30.8,17.6,0000.0,0026.68,0007.46,0003.48
2022-05-09 20:11:00,,0813.3,5.00,0.00,29.0,28.4,00.0,37.9,30.8,17.9,0000.0,0027.65,0007.43,0003.47
2022-05-09 20:12:00,,0813.2,5.01,0.00,29.0,28.4,00.0,37.9,30.8,17.3,0000.0,0027.13,0007.51,0003.46
2022-05-09 20:13:00,,0813.3,4.99,0.00,29.0,28.4,00.0,37.9,30.8,16.8,0000.0,0026.96,0007.55,0003.45
2022-05-09 20:14:00,,0813.4,4.99,0.00,29.0,28.4,00.0,37.9,30.8,17.0,0000.0,0027.39,0007.60,0003.45
2022-05-09 20:15:00,,0813.4,5.00,0.00,29.0,28.4,00.0,37.9,30.8,17.1,0000.0,0026.88,0007.67,0003.43
2022-05-09 20:16:00,,0813.3,4.99,0.00,29.0,28.4,00.0,37.9,30.8,17.0,0000.0,0027.52,0007.64,0003.42
2022-05-09 20:17:00,,0813.3,5.00,0.00,29.0,28.4,00.0,37.9,30.8,17.2,0000.0,0027.81,0007.74,0003.41
2022-05-09 20:18:00,,0813.3,4.99,0.00,29.0,28.4,00.0,37.9,30.8,17.2,0000.0,0027.03,0007.65,0003.40
2022-05-09 20:19:00,,0813.4,5.01,0.00,29.0,28.4,00.0,37.9,30.8,17.6,0000.0,0026.99,0007.54,0003.38
2022-05-09 20:20:00,,0813.4,5.00,0.00,29.0,28.4,00.0,37.9,30.8,17.1,0000.0,0026.83,0007.51,0003.37
2022-05-09 20:21:00,,0813.5,5.00,0.00,29.0,28.5,00.0,37.9,30.8,17.3,0000.0,0026.10,0007.53,0003.36
2022-05-09 20:22:00,,0813.5,5.01,0.00,29.0,28.5,00.0,37.9,30.8,16.8,0000.0,0024.76,0007.49,0003.37
2022-05-09 20:23:00,,0813.4,4.99,0.00,29.0,28.5,00.0,37.9,30.8,17.1,0000.0,0025.70,0007.47,0003.37
2022-05-09 20:24:00,,0813.4,5.01,0.00,29.0,28.5,00.0,38.0,30.8,17.0,0000.0,0026.94,0007.51,0003.36
2022-05-09 20:25:00,,0813.4,5.00,0.00,29.0,28.5,00.0,38.0,30.8,16.6,0000.0,0027.10,0007.53,0003.37
2022-05-09 20:26:00,,0813.4,5.00,0.00,29.0,28.5,00.0,38.0,30.8,17.0,0000.0,0027.35,0007.47,0003.38
2022-05-09 20:27:00,,0813.5,5.00,0.00,29.0,28.4,00.0,38.0,30.8,16.6,0000.0,0029.21,0007.37,0003.36
2022-05-09 20:28:00,,0813.4,4.99,0.00,29.1,28.5,00.0,38.0,30.9,16.9,0000.0,0030.98,0007.29,0003.36
2022-05-09 20:29:00,,0813.4,5.00,0.00,29.1,28.4,00.0,38.0,30.9,16.5,0000.0,0031.82,0007.41,0003.38
2022-05-09 20:30:00,,0813.4,5.00,0.00,29.1,28.4,00.0,38.0,30.8,16.6,0000.0,0031.89,0007.55,0003.41
2022-05-09 20:31:00,,0813.4,5.00,0.00,29.1,28.4,00.0,38.0,30.9,16.8,0000.0,0032.15,0007.54,0003.43
2022-05-09 20:32:00,,0813.5,5.00,0.00,29.1,28.4,00.0,38.0,30.9,16.5,0000.0,0032.83,0007.61,0003.44
2022-05-09 20:33:00,,0813.5,5.00,0.00,29.1,28.4,00.0,38.0,30.9,16.6,0000.0,0032.68,0007.65,0003.44
2022-05-09 20:34:00,,0813.5,5.01,0.00,29.1,28.5,00.0,38.0,30.8,16.3,0000.0,0031.37,0007.55,0003.45
2022-05-09 20:35:00,,0813.5,5.00,0.00,29.1,28.5,00.0,38.0,30.8,16.6,0000.0,0030.51,0007.50,0003.45
2022-05-09 20:36:00,,0813.5,4.99,0.00,29.1,28.5,00.0,38.0,30.9,17.5,0000.0,0030.23,0007.45,0003.45
2022-05-09 20:37:00,,0813.7,4.99,0.00,29.1,28.5,00.0,38.0,30.9,17.0,0000.0,0031.27,0007.44,0003.44
2022-05-09 20:38:00,,0813.6,5.00,0.00,29.1,28.5,00.0,38.0,30.9,16.5,0000.0,0031.12,0007.48,0003.45
2022-05-09 20:39:00,,0813.5,5.01,0.00,29.1,28.5,00.0,38.0,30.9,16.4,0000.0,0029.97,0007.63,0003.46
2022-05-09 20:40:00,,0813.4,5.00,0.00,29.1,28.6,00.0,38.1,30.9,16.1,0000.0,0029.32,0007.74,0003.49
2022-05-09 20:41:00,,0813.5,5.00,0.00,29.1,28.6,00.0,38.1,30.9,16.3,0000.0,0028.48,0007.75,0003.51
2022-05-09 20:42:00,,0813.5,5.00,0.00,29.1,28.6,00.0,38.1,30.9,16.2,0000.0,0029.05,0007.78,0003.51
2022-05-09 20:43:00,,0813.6,5.01,0.00,29.1,28.6,00.0,38.1,30.9,16.0,0000.0,0029.25,0007.85,0003.51
2022-05-09 20:44:00,,0813.6,5.00,0.00,29.2,28.6,00.0,38.1,31.0,16.5,0000.0,0030.21,0007.87,0003.52
2022-05-09 20:45:00,,0813.4,4.99,0.00,29.2,28.6,00.0,38.1,31.0,16.1,0000.0,0033.59,0007.96,0003.52
2022-05-09 20:46:00,,0813.5,5.00,0.00,29.2,28.6,00.0,38.1,30.9,16.3,0000.0,0035.08,0008.00,0003.53
2022-05-09 20:47:00,,0813.5,4.99,0.00,29.2,28.6,00.0,38.1,30.9,16.8,0000.0,0036.01,0008.04,0003.53
2022-05-09 20:48:00,,0813.5,4.98,0.00,29.2,28.6,00.0,38.1,31.0,16.5,0000.0,0036.83,0008.08,0003.52
2022-05-09 20:49:00,,0813.5,5.01,0.00,29.2,28.6,00.0,38.1,31.0,16.1,0000.0,0036.06,0008.07,0003.52
2022-05-09 20:50:00,,0813.5,5.01,0.00,29.2,28.6,00.0,38.1,31.0,16.4,0000.0,0035.53,0008.00,0003.50
2022-05-09 20:51:00,,0813.5,5.00,0.00,29.2,28.6,00.0,38.1,31.0,16.4,0000.0,0036.69,0007.85,0003.47
2022-05-09 20:52:00,,0813.5,5.00,0.00,29.2,28.6,00.0,38.1,31.0,16.6,0000.0,0037.44,0007.76,0003.46
2022-05-09 20:53:00,,0813.5,4.99,0.00,29.2,28.6,00.0,38.2,31.0,17.0,0000.0,0037.68,0007.77,0003.45
2022-05-09 20:54:00,,0813.6,5.01,0.00,29.2,28.6,00.0,38.2,31.0,16.4,0000.0,0037.78,0007.73,0003.44
2022-05-09 20:55:00,,0813.5,5.00,0.00,29.3,28.6,00.0,38.2,31.1,16.7,0000.0,0036.35,0007.69,0003.44
2022-05-09 20:56:00,,0813.5,5.00,0.00,29.3,28.6,00.0,38.2,31.1,16.1,0000.0,0034.19,0007.57,0003.44
2022-05-09 20:57:00,,0813.5,5.01,0.00,29.2,28.6,00.0,38.2,31.0,15.9,0000.0,0032.66,0007.56,0003.43
2022-05-09 20:58:00,,0813.5,5.00,0.00,29.2,28.5,00.0,38.2,31.0,16.0,0000.0,0032.61,0007.56,0003.42
2022-05-09 20:59:00,,0813.5,5.00,0.00,29.2,28.5,00.0,38.2,30.9,16.1,0000.0,0031.73,0007.58,0003.43
